Location: Fort Wayne
(41.1310°N, 85.1290°W)
Time: 09:08:31
(UTC-04:00)

Cosmos 2219 Rocket - Visible Passes

Search period start: 30 July 2014 00:00
Search period end: 09 August 2014 00:00
Orbit: 830 x 845 km, 71.0° (Epoch: 29 July)

Date Brightness Start Highest point End Pass type
(mag) Time Alt. Az. Time Alt. Az. Time Alt. Az.
30 Jul 3.7 00:45:40 10° NW 00:50:05 24° WSW 00:50:08 24° WSW visible
30 Jul 2.8 22:44:51 10° NNW 22:50:11 43° ENE 22:52:34 28° ESE visible
31 Jul 3.6 00:29:18 10° NW 00:33:52 26° WSW 00:34:17 26° WSW visible
31 Jul 2.9 22:28:38 10° N 22:33:54 40° ENE 22:36:45 24° ESE visible
01 Aug 3.5 00:12:57 10° NW 00:17:39 28° WSW 00:18:28 27° WSW visible
01 Aug 3.0 22:12:26 10° N 22:17:38 38° ENE 22:20:58 20° ESE visible
01 Aug 3.4 23:56:36 10° NW 00:01:26 31° WSW 00:02:42 28° SW visible
02 Aug 3.0 21:56:14 10° N 22:01:21 35° ENE 22:05:14 16° ESE visible
02 Aug 3.4 23:40:16 10° NW 23:45:13 33° WSW 23:46:58 27° SW visible
03 Aug 3.1 21:40:02 10° N 21:45:04 33° ENE 21:49:33 12° ESE visible
03 Aug 3.3 23:23:57 10° NW 23:29:00 36° WSW 23:31:17 26° SSW visible
04 Aug 3.2 21:23:51 10° N 21:28:47 31° ENE 21:33:42 10° ESE visible
04 Aug 3.2 23:07:38 10° NW 23:12:47 39° WSW 23:15:39 23° SSW visible
05 Aug 3.1 22:51:19 10° NW 22:56:34 42° WSW 23:00:04 20° SSW visible
06 Aug 3.0 22:35:02 10° NW 22:40:21 45° WSW 22:44:33 16° S visible
07 Aug 2.9 22:18:44 10° NW 22:24:07 49° WSW 22:29:06 12° S visible
08 Aug 2.8 22:02:27 10° NNW 22:07:53 53° WSW 22:13:19 10° S visible
